Regional Weather Roundup
Issued by NWS

Home | Current Version | Previous Version | Graphics & Text | Print | Product List | Glossary On
Versions: 1 2 3 4 5 6 7 8 9 10 11 12 13 14 15 16 17 18 19 20 21 22 23 24 25 26 27 28 29 30 31 32 33 34 35 36 37 38 39 40 41 42 43 44 45 46 47 48 49 50
431
ASUS45 KBOU 231010
RWRCO

WEATHER ROUNDUP FOR COLORADO
NATIONAL WEATHER SERVICE DENVER/BOULDER CO
300 AM MST FRI FEB 23 2018

NOTE: "FAIR" INDICATES FEW OR NO CLOUDS BELOW 12000 FEET WITH NO
SIGNIFICANT WEATHER AND/OR OBSTRUCTIONS TO VISIBILITY.

COZ001>005-013-030-031-231100-
...NORTHWEST COLORADO...

CITY           SKY/WX    TMP DP  RH WIND       PRES   REMARKS
CRAIG          MOCLDY    14   9  80 CALM      29.95F
HAYDEN         LGT SNOW  19  15  84 E8        29.96S FOG     WCI   9
MEEKER         MOCLDY    17  13  84 SE3       29.93F
RANGELY        CLOUDY    15  12  85 CALM      29.97F
RABBIT EARS PA LGT SNOW   9   5  85 SW9       29.83S WCI  -5
STEAMBOAT SPGS CLOUDY    18  15  88 CALM      29.94S
WALDEN         CLOUDY    14  10  85 SE3       29.92S
$$

COZ006>008-011-231100-
...WEST CENTRAL VALLEYS...

CITY           SKY/WX    TMP DP  RH WIND       PRES   REMARKS
GRAND JUNCTION FAIR      27  23  85 E12       29.97F WCI  17
MONTROSE       CLOUDY    23  17  78 S7        30.01F WCI  15
EAGLE          CLOUDY    20  18  92 E3        29.99S
RIFLE          LGT SNOW  26  25  96 E5        29.99F FOG     WCI  20
DELTA          CLOUDY    30  26  83 NE9       30.02S WCI  22
NUCLA          FAIR      23  10  58 MISG      30.01S
$$

COZ017>023-064>068-231100-
...SOUTHWEST COLORADO...

CITY           SKY/WX    TMP DP  RH WIND       PRES   REMARKS
DURANGO        FAIR      14  11  87 NE5       30.04S WCI   6
CORTEZ         FAIR      19   6  57 SW6       30.02F WCI  11
PAGOSA SPRINGS FAIR     N/A N/A N/A CALM      30.04S
TELLURIDE      CLOUDY    17   6  61 SE13      29.93F WCI   4
WOLF CREEK PAS CLOUDY     3   1  92 S23G36    29.91F WCI -19
$$

COZ009-010-012-014-032>034-037-058>063-231100-
...CENTRAL COLORADO...

CITY           SKY/WX    TMP DP  RH WIND       PRES   REMARKS
ASPEN          CLOUDY    16  11  80 CALM      29.90F
BUENA VISTA    CLOUDY    17  10  73 CALM      29.96S
COPPER MTN     CLOUDY     9   0  66 S14       29.81F WCI  -8
BERTHOUD PASS  MOCLDY     0 -11  60 SW13G23   29.81S WCI -18
COTTONWOOD PAS CLOUDY    16  10  79 CALM      29.90S
GUNNISON       MOCLDY     7   2  80 E3        29.99S
GRANBY         CLOUDY    12   9  87 CALM      29.93S
KREMMLING      LGT SNOW  21  18  86 CALM      29.96S VSB 1
LEADVILLE      LGT SNOW   7   4  87 CALM      29.87S FOG
MONARCH PASS     N/A      3   0  85 SW24G32   29.93S WCI -20
SALIDA         FAIR      18  10  71 N5        30.05S WCI  11
SUNLIGHT       LGT SNOW   9   3  78 SW8       29.89F WCI  -4
WILKERSON PASS FAIR       5   1  85 SW13G23   29.86F WCI -12
$$

COZ069>075-231100-
...SAN LUIS VALLEY/SANGRE DE CRISTO MOUNTAINS...

CITY           SKY/WX    TMP DP  RH WIND       PRES   REMARKS
ALAMOSA        FAIR      17   8  67 S9        30.00S WCI   6
DEL NORTE      FAIR      11   8  87 CALM      29.99S
LA VETA PASS   FAIR      14   7  73 S23G39    30.03F WCI  -5
SAGUACHE       MOCLDY     7   1  78 NW8       30.00S WCI  -6
$$

COZ035-036-038>040-231100-
...NORTHERN COLORADO FRONT RANGE...

CITY           SKY/WX    TMP DP  RH WIND       PRES   REMARKS
DENVER INTL AP FAIR      13  10  88 SW5       30.01F FOG     WCI   5
AURORA         PTCLDY    16  15  98 SW6       30.00F WCI   7
FRONT RANGE AP FAIR      17  15  90 SE7       30.01F FOG     WCI   8
ERIE MUNI ARPT FAIR       5   3  88 CALM      30.08F
BOULDER MUN AP FAIR      18  12  79 CALM      30.01F
CENTENNIAL     FAIR      15  13  91 CALM      29.99F
BROOMFIELD     NOT AVBL
FORT COLLINS   FAIR      12   9  87 NE5       30.05S FOG     WCI   4
LONGMONT       FAIR      11   6  81 CALM      30.05S
$$

COZ041-046-047-076>085-087-088-231100-
...PIKES PEAK/PALMER DIVIDE AND SOUTHERN FOOTHILLS...

CITY           SKY/WX    TMP DP  RH WIND       PRES   REMARKS
COLO. SPRINGS  FAIR      15  10  80 CALM      30.01S FOG
A. F. ACADEMY  FAIR      11   7  85 N8        29.98F WCI  -1
SCHRIEVER AFB  NOT AVBL
CHEYENNE MTN   FAIR      19  15  85 S6        29.92F WCI  11
ELLICOTT         N/A    N/A N/A N/A SE3       29.99S
FALCON         FAIR      16  13  89 S5        29.99S WCI   8
FORT CARSON    FAIR      16  13  86 N6        30.01S WCI   8
LIMON          FAIR       2   1  96 NW3       30.03F FOG
MONUMENT HILL  FAIR      16  12  86 SW13      29.97F WCI   2
CANON CITY     CLEAR     19  18  93 CALM      30.03F
WALSENBURG     NOT AVBL
TRINIDAD       FAIR      17   6  62 N6        30.00F WCI   9
$$

COZ042>045-048>051-090-091-231100-
...NORTHEAST COLORADO...

CITY           SKY/WX    TMP DP  RH WIND       PRES   REMARKS
GREELEY ARPT   MOCLDY     8   5  87 CALM      30.06S
AKRON          FAIR      15  13  91 W6        30.04F FOG     WCI   6
BURLINGTON     FOG       19  16  88 W7        30.08F VSB 1/2 WCI  10
WRAY           FAIR      18  16  93 W5        30.10F WCI  11
YUMA           FAIR      14  12  92 SW7       30.07F WCI   4
STERLING       FAIR      16  14  93 W5        30.07S WCI   9
HOLYOKE        FAIR      21  19  93 SW3       30.09F
FORT MORGAN    MOCLDY    17  15  91 W7        30.07R WCI   8
$$

COZ086-089-092>099-231100-
...SOUTHEAST COLORADO...

CITY           SKY/WX    TMP DP  RH WIND       PRES   REMARKS
PUEBLO         FAIR      15  12  88 N3        30.05F FOG
LA JUNTA       FAIR      18  13  80 SE3       30.08S
LAMAR          FOG       23  21  92 E3        30.10S VSB 1
SPRINGFIELD      N/A     16   6  65 N6        30.05S WCI   7
$$




USA.gov is the U.S. government's official web portal to all federal, state and local government web resources and services.